| time (UTC) | temp C | wind direction | speed KPH | gust KPH | rain 1hr cm | rain 24hr cm | rain mn cm | humidity % | barometer mb |
| 20260503211535 | 16 | 215 | 6.4 | 16.1 | 0.00 | 0.00 | 0.00 | 68 | 1014.4 |
| 20260503210024 | 17 | 280 | 4.8 | 14.5 | 0.00 | 0.00 | 0.00 | 64 | 1014.4 |
| 20260503204528 | 17 | 251 | 6.4 | 16.1 | 0.00 | 0.00 | 0.00 | 64 | 1014.4 |
| 20260503203008 | 17 | 256 | 4.8 | 14.5 | 0.00 | 0.00 | 0.00 | 66 | 1014.6 |
| 20260503201511 | 17 | 265 | 6.4 | 17.7 | 0.00 | 0.00 | 0.00 | 68 | 1014.6 |
| 20260503200009 | 16 | 274 | 6.4 | 20.9 | 0.00 | 0.00 | 0.00 | 67 | 1014.8 |
| 20260503194507 | 17 | 229 | 4.8 | 16.1 | 0.00 | 0.00 | 0.00 | 63 | 1014.9 |
| 20260503193030 | 17 | 246 | 6.4 | 17.7 | 0.00 | 0.00 | 0.00 | 61 | 1015.0 |
| 20260503191514 | 17 | 207 | 3.2 | 12.9 | 0.00 | 0.00 | 0.00 | 60 | 1015.0 |
| 20260503190025 | 17 | 287 | 4.8 | 14.5 | 0.00 | 0.00 | 0.00 | 59 | 1015.1 |
| 20260503184518 | 17 | 220 | 6.4 | 12.9 | 0.00 | 0.00 | 0.00 | 55 | 1015.1 |
| 20260503183017 | 17 | 234 | 4.8 | 11.3 | 0.00 | 0.00 | 0.00 | 55 | 1015.2 |
| 20260503181519 | 17 | 252 | 3.2 | 9.7 | 0.00 | 0.00 | 0.00 | 54 | 1015.3 |
| 20260503180020 | 16 | 221 | 3.2 | 11.3 | 0.00 | 0.00 | 0.00 | 58 | 1015.3 |
| 20260503174527 | 16 | 261 | 3.2 | 12.9 | 0.00 | 0.00 | 0.00 | 60 | 1015.4 |
| 20260503173022 | 15 | 263 | 1.6 | 12.9 | 0.00 | 0.00 | 0.00 | 67 | 1015.4 |
| 20260503171522 | 15 | 277 | 4.8 | 9.7 | 0.00 | 0.00 | 0.00 | 67 | 1015.3 |
| 20260503081538 | 13 | 5 | 0.0 | 3.2 | 0.00 | 0.00 | 0.00 | 81 | 1013.6 |
| 20260503071531 | 13 | 329 | 1.6 | 4.8 | 0.00 | 0.00 | 0.00 | 80 | 1013.5 |
| 20260503054530 | 13 | 33 | 1.6 | 3.2 | 0.00 | 0.00 | 0.00 | 82 | 1013.1 |
| 20260503053024 | 13 | 315 | 0.0 | 4.8 | 0.00 | 0.00 | 0.00 | 82 | 1013.1 |
| 20260503051519 | 13 | 296 | 1.6 | 6.4 | 0.00 | 0.00 | 0.00 | 83 | 1013.0 |
| 20260503050025 | 12 | 315 | 1.6 | 4.8 | 0.00 | 0.00 | 0.00 | 83 | 1012.8 |
| 20260503044515 | 12 | 323 | 1.6 | 4.8 | 0.00 | 0.00 | 0.00 | 83 | 1012.7 |
| 20260503043014 | 12 | 340 | 0.0 | 4.8 | 0.00 | 0.00 | 0.00 | 83 | 1012.5 |
| 20260503041518 | 12 | 352 | 0.0 | 3.2 | 0.00 | 0.00 | 0.00 | 82 | 1012.6 |
| 20260503040021 | 13 | 51 | 0.0 | 4.8 | 0.00 | 0.00 | 0.00 | 82 | 1012.6 |
| 20260503034519 | 13 | 35 | 0.0 | 3.2 | 0.00 | 0.00 | 0.00 | 81 | 1012.4 |
| 20260503033026 | 13 | 342 | 1.6 | 3.2 | 0.00 | 0.00 | 0.00 | 81 | 1012.4 |
| 20260503031520 | 13 | 5 | 1.6 | 6.4 | 0.00 | 0.00 | 0.00 | 82 | 1012.4 |
| 20260503030021 | 13 | 294 | 3.2 | 9.7 | 0.00 | 0.00 | 0.00 | 82 | 1012.3 |
| 20260503024523 | 13 | 232 | 3.2 | 11.3 | 0.00 | 0.00 | 0.00 | 81 | 1012.1 |
| 20260503023025 | 13 | 276 | 3.2 | 9.7 | 0.00 | 0.00 | 0.00 | 80 | 1011.8 |
| 20260503021504 | 14 | 298 | 4.8 | 14.5 | 0.00 | 0.00 | 0.00 | 78 | 1012.0 |
| 20260503020004 | 15 | 269 | 1.6 | 12.9 | 0.00 | 0.00 | 0.00 | 76 | 1012.0 |
| 20260503014506 | 15 | 226 | 3.2 | 16.1 | 0.00 | 0.00 | 0.00 | 75 | 1012.1 |
| 20260503013006 | 15 | 264 | 3.2 | 14.5 | 0.00 | 0.00 | 0.00 | 75 | 1012.1 |
| 20260503011506 | 15 | 284 | 6.4 | 11.3 | 0.00 | 0.00 | 0.00 | 74 | 1012.2 |
| 20260503010009 | 15 | 279 | 4.8 | 16.1 | 0.00 | 0.00 | 0.00 | 75 | 1012.2 |
| 20260503004507 | 15 | 260 | 8.0 | 16.1 | 0.00 | 0.00 | 0.00 | 74 | 1012.3 |
| 20260503003020 | 16 | 263 | 6.4 | 14.5 | 0.00 | 0.00 | 0.00 | 72 | 1012.3 |
| 20260503001520 | 16 | 273 | 9.7 | 16.1 | 0.00 | 0.00 | 0.00 | 70 | 1012.2 |
| 20260503000016 | 16 | 288 | 6.4 | 12.9 | 0.00 | 0.00 | 0.00 | 70 | 1012.3 |
| 20260502234534 | 17 | 254 | 8.0 | 14.5 | 0.00 | 0.00 | 0.00 | 69 | 1012.3 |
| 20260502233020 | 17 | 259 | 4.8 | 16.1 | 0.00 | 0.00 | 0.00 | 69 | 1012.2 |
| 20260502231516 | 16 | 261 | 9.7 | 17.7 | 0.00 | 0.00 | 0.00 | 70 | 1012.7 |
| 20260502230018 | 16 | 275 | 6.4 | 16.1 | 0.00 | 0.00 | 0.00 | 70 | 1012.8 |
| 20260502224519 | 17 | 300 | 8.0 | 17.7 | 0.00 | 0.00 | 0.00 | 67 | 1012.9 |
| 20260502223020 | 17 | 264 | 6.4 | 16.1 | 0.00 | 0.00 | 0.00 | 68 | 1013.3 |
| 20260502221521 | 16 | 291 | 9.7 | 16.1 | 0.00 | 0.00 | 0.00 | 66 | 1013.7 |
| 20260502220031 | 17 | 248 | 8.0 | 16.1 | 0.00 | 0.00 | 0.00 | 68 | 1013.8 |
| 20260502214525 | 16 | 270 | 6.4 | 12.9 | 0.00 | 0.00 | 0.00 | 68 | 1013.9 |
| 20260502213025 | 16 | 263 | 6.4 | 12.9 | 0.00 | 0.00 | 0.00 | 67 | 1014.2 |